New Orleans, LA

6:48 PM CDT on April 26, 2017 (GMT -0500)
New Orleans International

Weather History for KMSY - March, 2013

Change the Weather History Date:

Thursday, March 21, 2013

  Actual Average Record
Temperature  
Mean Temperature 58 °F -  
Max Temperature 64 °F 71 °F 87 °F (1982)
Min Temperature 51 °F 50 °F 32 °F (1965)
Degree Days  
Heating Degree Days 8    
Growing Degree Days 8 (Base 50)    
Moisture  
Dew Point 38 °F    
Average Humidity 46    
Maximum Humidity 65    
Minimum Humidity 28    
Precipitation  
Precipitation 0.00 in - - ()
Sea Level Pressure  
Sea Level Pressure 29.99 in    
Wind  
Wind Speed 9 mph (East)    
Max Wind Speed 14 mph    
Max Gust Speed -    
Visibility 10 miles    
Events      
Averages and records for this station are not official NWS values.
T = Trace of Precipitation, MM = Missing Value Source: NWS Daily Summary

Daily Weather History Graph

Daily Weather History Graph

Search for Another Location

Airport or City:

Trip Planner

Search our weather history database for the weather conditions in past years. The results will help you decide how hot, cold, wet, or windy it might be!

Date:

Astronomy

Mar. 21, 2013 Rise Set
Actual Time 7:03 AM CDT 7:13 PM CDT
Civil Twilight 6:39 AM CDT 7:37 PM CDT
Nautical Twilight 6:11 AM CDT 8:05 PM CDT
Astronomical Twilight 5:43 AM CDT 8:33 PM CDT
Moon 2:03 PM CDT (3/21) 3:04 AM CDT (3/21)
Length of Visible Light 12h 57m
Length of Day
12h 09m
Waxing Gibbous, 69% of the Moon is Illuminated
Mar 21
Waxing Gibbous
Mar 27
Full
Apr 2
Last Quarter
Apr 10
New
Apr 18
First Quarter

Hourly Weather History & Observations

Time (CDT) Temp. Dew Point Humidity Pressure Visibility Wind Dir Wind Speed Gust Speed Precip Events Conditions
12:53 AM 55.4 °F 32.0 °F 41% 30.06 in 10.0 mi NE 9.2 mph - N/A   Partly Cloudy
1:53 AM 57.0 °F 32.0 °F 39% 30.06 in 10.0 mi NE 12.7 mph - N/A   Scattered Clouds
2:53 AM 55.0 °F 35.1 °F 47% 30.04 in 10.0 mi NE 8.1 mph - N/A   Mostly Cloudy
3:53 AM 55.0 °F 36.0 °F 49% 30.03 in 10.0 mi ENE 8.1 mph - N/A   Mostly Cloudy
4:53 AM 54.0 °F 37.0 °F 53% 30.03 in 10.0 mi ENE 4.6 mph - N/A   Mostly Cloudy
5:53 AM 52.0 °F 36.0 °F 54% 30.04 in 10.0 mi ENE 3.5 mph - N/A   Mostly Cloudy
6:53 AM 52.0 °F 37.0 °F 57% 30.04 in 10.0 mi East 5.8 mph - N/A   Mostly Cloudy
7:53 AM 53.1 °F 37.0 °F 55% 30.07 in 10.0 mi East 3.5 mph - N/A   Mostly Cloudy
8:53 AM 55.0 °F 37.9 °F 53% 30.07 in 10.0 mi East 8.1 mph - N/A   Mostly Cloudy
9:53 AM 57.9 °F 37.0 °F 46% 30.08 in 10.0 mi ENE 10.4 mph - N/A   Mostly Cloudy
10:53 AM 59.0 °F 36.0 °F 42% 30.07 in 10.0 mi NE 9.2 mph - N/A   Mostly Cloudy
11:53 AM 61.0 °F 37.9 °F 42% 30.06 in 10.0 mi NE 10.4 mph - N/A   Mostly Cloudy
12:53 PM 63.0 °F 39.0 °F 41% 30.04 in 10.0 mi NE 10.4 mph - N/A   Mostly Cloudy
1:53 PM 64.0 °F 35.1 °F 34% 30.00 in 10.0 mi SE 8.1 mph - N/A   Mostly Cloudy
2:53 PM 64.9 °F 37.0 °F 36% 29.96 in 10.0 mi SE 11.5 mph - N/A   Mostly Cloudy
3:53 PM 64.0 °F 35.1 °F 34% 29.94 in 10.0 mi SE 9.2 mph - N/A   Mostly Cloudy
4:53 PM 63.0 °F 37.9 °F 40% 29.92 in 10.0 mi ESE 13.8 mph - N/A   Mostly Cloudy
5:53 PM 61.0 °F 39.0 °F 44% 29.91 in 10.0 mi SSE 12.7 mph - N/A   Mostly Cloudy
6:53 PM 60.1 °F 39.9 °F 47% 29.90 in 10.0 mi SE 10.4 mph - N/A   Mostly Cloudy
7:53 PM 59.0 °F 43.0 °F 55% 29.90 in 10.0 mi SE 6.9 mph - N/A   Mostly Cloudy
8:53 PM 57.9 °F 44.1 °F 60% 29.89 in 10.0 mi ESE 10.4 mph - N/A   Mostly Cloudy
9:53 PM 57.0 °F 44.1 °F 62% 29.90 in 10.0 mi SE 9.2 mph - N/A   Scattered Clouds
10:53 PM 57.0 °F 45.0 °F 64% 29.89 in 10.0 mi ESE 5.8 mph - N/A   Scattered Clouds
11:53 PM 57.9 °F 46.0 °F 65% 29.89 in 10.0 mi East 5.8 mph - N/A   Mostly Cloudy